Regional Weather Roundup
Issued by NWS Memphis, TN

Home | Current Version | Previous Version | Text Only | Print | Product List | Glossary On
Versions: 1 2 3 4 5 6 7 8 9 10 11 12 13 14 15 16 17 18 19 20 21 22 23 24 25 26 27 28 29 30 31 32 33 34 35 36 37 38 39 40 41 42 43 44 45 46 47 48 49 50
000
ASUS44 KMEG 310910
RWRMEG
MEMPHIS CWA HOURLY WEATHER ROUNDUP
NATIONAL WEATHER SERVICE MEMPHIS TN
400 AM CDT MON AUG 31 2015

...WEST TENNESSEE...

CITY           SKY/WX    TMP DP  RH WIND       PRES   REMARKS
MEMPHIS INTL   CLEAR     73  67  81 SE7       30.03S
NWS MEMPHIS      N/A     70 N/A N/A MISG        N/A
JACKSON        CLEAR     67  65  93 CALM      30.05S
LEXINGTON        N/A     64  63  94 CALM      30.06S VSB 3/4
DYERSBURG      CLEAR    N/A N/A N/A MISG        N/A
UNION CITY       N/A    N/A N/A N/A CALM      30.04S VSB 1
PARIS          CLEAR     66  66 100 SE3       30.07R


...EASTERN ARKANSAS...

CITY           SKY/WX    TMP DP  RH WIND       PRES   REMARKS
JONESBORO      CLEAR     70  68  93 SE3       30.02S
WEST MEMPHIS   CLEAR     71  70  96 S7        30.02R
BATESVILLE       N/A     72  70  94 NE5       30.02S
NEWPORT        CLEAR     70  70 100 SE5       30.02S
WALNUT RIDGE   CLEAR     72  66  83 CALM      30.02S
BLYTHEVILLE    CLEAR     71  70  96 S6        30.04R
SEARCY         CLEAR     70  69  97 NE3       30.02S
STUTTGART      CLEAR     73  66  78 SE6       30.00S
PINE BLUFF     CLEAR     69  68  96 E5        29.99R
MONTICELLO     CLEAR     73  69  87 CALM      29.99S


...NORTH MISSISSIPPI...

CITY           SKY/WX    TMP DP  RH WIND       PRES   REMARKS
TUPELO         CLEAR     68  65  90 CALM      30.04S
OXFORD         CLEAR     66  64  94 SE5       30.06S
OLIVE BRANCH   CLEAR     70  70 100 SE6       30.04S
TUNICA         CLEAR     70  66  88 SE5       30.03S
CLARKSDALE       N/A     70  70 100 E3        30.03S
CORINTH        CLEAR     64  63  94 CALM      30.05S
GREENWOOD      CLEAR     72  66  81 E6        30.02R
COLUMBUS       CLEAR     64  63  96 CALM      30.03S
STARKVILLE     FAIR      63  63 100 CALM      30.05R FOG
GOLDEN TRIANGL CLEAR     66  63  88 E5        30.03S


...SOUTHEAST MISSOURI...

CITY           SKY/WX    TMP DP  RH WIND       PRES   REMARKS
WEST PLAINS    CLEAR     70  67  90 CALM      30.05S
POPLAR BLUFF   CLOUDY    68  67  96 CALM      30.03R FOG
CAPE GIRARDEAU PTCLDY    67  66  97 SE3       30.04S


...NORTHWEST ALABAMA...

CITY           SKY/WX    TMP DP  RH WIND       PRES   REMARKS
MUSCLE SHOALS  CLEAR     64  61  90 CALM      30.07F FOG


...MIDDLE TENNESSEE...

CITY           SKY/WX    TMP DP  RH WIND       PRES   REMARKS
NASHVILLE      CLEAR     67  64  90 S3        30.08F
CLARKSVILLE    FOG       64  63  96 CALM      30.07R VSB 1/2
COLUMBIA       CLEAR    N/A N/A N/A CALM      30.07S


...WESTERN KENTUCKY...

CITY           SKY/WX    TMP DP  RH WIND       PRES   REMARKS
PADUCAH        PTCLDY    66  65  96 CALM      30.05R FOG
FORT CAMPBELL  CLEAR     67  65  95 CALM      30.07R


...CENTRAL ARKANSAS...

CITY           SKY/WX    TMP DP  RH WIND       PRES   REMARKS
LITTLE ROCK    PTCLDY    74  69  85 CALM      30.00R


SKY/WX REPORTED AS FAIR MEANS FEW OR NO CLOUDS BELOW
12 THOUSAND FEET.



USA.gov is the U.S. government's official web portal to all federal, state and local government web resources and services.